SCOUT B DEB, 28800

Orbit data source: Space-Track

SCOUT B DEB, 28800 is space debris in LEO originally from a launch on Tue, 10 Aug 1965 UTC launched from the Wallops Island (WLPIS). Debris objects in space refer to the collection of defunct objects orbiting the Earth. Examples of debris include non-operational satellites, rocket bodies, and fragments generated from explosions, collisions, or faulty payload assembly.

Loading next visibility...
Identifier
28800, 1965-063K
Orbit
LEO
Country
Flag of USUS
Related business
Manufacturer
Unknown
Mission
Spacecraft
Bus & Motor
Unknown
Mass
Unknown
Launch date (UTC)
1965-08-10 (60 years ago)
Launch vehicle
Unknown
Launch site
Wallops Island (WLPIS)
Object type
Payload
Rocket body
Debris
Shape & HBR
Unknown
Radar Cross Section
Small (<0.1 m²)

Expand to show TLE details & history
Last TLE update: 1 year ago

TLE from 1 year ago
0 SCOUT B DEB
1 28800U 65063K   24172.47078796  .00000408  00000-0  21853-2 0  9995
2 28800  69.1961 210.3652 0766932  10.0137  49.4534 12.03755512865072
Epoch: 2024-06-20T11:17Z
TLE epoch observation values (Epoch: 2024-06-20T11:17:56.079Z)
Latitude
59.16977°
Longitude
171.01925°
Altitude
1,301.891 km
Speed
7.376 km/s
True Right ascension
16h 38m 39s
True Declination
59° 01' 44"
Sunlit
Object was in daylight at epoch
Visualization orbit readout
Latitude
Unknown
Longitude
Unknown
Altitude
Unknown
Speed
Unknown
Apparent Right ascension
Unknown
Apparent Declination
Unknown
Sunlit
N/A
Visualization observer readout
Local Sidereal Time
15:01:31
Azimuth
Unknown
Elevation
Unknown
Doppler factor
Unknown
Orbital elements
Apogee altitude
2,279.031 km
Perigee altitude
1,045.725 km
Semi-major axis
8,040.515 km
Eccentricity
0.07669
Inclination
69.1961°
RAAN
210.3652°
Arg. of periapsis
10.0137°
True anomaly
56.55569°
Mean anomaly
49.4534°
Eccentric anomaly
52.96096°
Mean motion
3.01035 °/min
Orbital period
119.59 mins
BSTAR
0.0021853
Loading maneuver chart data...
Computing Atmospheric mass density...
Loading historical data...
Loading historical data...
Loading historical data...
Loading historical data...
Loading historical data...
Loading historical data...
Loading historical data...

Documentation

Showing up to 5 results
|